TimeEDT,TemperatureF,Dew PointF,Humidity,Sea Level PressureIn,VisibilityMPH,Wind Direction,Wind SpeedMPH,Gust SpeedMPH,PrecipitationIn,Events,Conditions,WindDirDegrees,DateUTC
12:54 AM,57.9,50.0,75,29.97,10.0,South,5.8,-,N/A,,Clear,190,2013-10-22 04:54:00
1:54 AM,57.0,50.0,77,29.95,10.0,South,5.8,-,N/A,,Clear,180,2013-10-22 05:54:00
2:54 AM,57.9,48.0,70,29.94,10.0,SSW,4.6,-,N/A,,Clear,200,2013-10-22 06:54:00
3:54 AM,55.9,48.0,75,29.91,10.0,South,4.6,-,N/A,,Clear,190,2013-10-22 07:54:00
4:54 AM,54.0,46.9,77,29.90,10.0,South,4.6,-,N/A,,Clear,170,2013-10-22 08:54:00
5:54 AM,53.1,46.0,77,29.89,10.0,South,3.5,-,N/A,,Clear,180,2013-10-22 09:54:00
6:54 AM,53.1,46.9,80,29.87,10.0,South,3.5,-,N/A,,Clear,170,2013-10-22 10:54:00
7:54 AM,52.0,46.9,83,29.87,10.0,Calm,Calm,-,N/A,,Clear,0,2013-10-22 11:54:00
8:54 AM,55.0,48.0,77,29.87,5.0,Variable,3.5,-,N/A,,Haze,0,2013-10-22 12:54:00
9:54 AM,59.0,48.9,69,29.88,9.0,Calm,Calm,-,N/A,,Clear,0,2013-10-22 13:54:00
10:54 AM,63.0,50.0,63,29.87,10.0,Calm,Calm,-,N/A,,Clear,0,2013-10-22 14:54:00
11:54 AM,63.0,50.0,63,29.86,10.0,West,5.8,-,N/A,,Mostly Cloudy,280,2013-10-22 15:54:00
12:54 PM,63.0,51.1,65,29.86,10.0,NNW,4.6,-,N/A,,Overcast,330,2013-10-22 16:54:00
1:54 PM,63.0,50.0,63,29.84,10.0,NW,8.1,-,N/A,,Mostly Cloudy,320,2013-10-22 17:54:00
2:54 PM,63.0,48.9,60,29.84,10.0,NW,6.9,-,N/A,,Overcast,310,2013-10-22 18:54:00
3:54 PM,62.1,48.9,62,29.83,10.0,NW,4.6,-,N/A,,Scattered Clouds,310,2013-10-22 19:54:00
4:54 PM,63.0,48.0,58,29.84,10.0,NW,9.2,-,N/A,,Mostly Cloudy,320,2013-10-22 20:54:00
5:54 PM,61.0,48.9,64,29.83,10.0,WNW,4.6,-,N/A,,Clear,290,2013-10-22 21:54:00
6:54 PM,60.1,50.0,69,29.84,10.0,NW,5.8,-,N/A,,Clear,320,2013-10-22 22:54:00
7:54 PM,59.0,48.9,69,29.85,10.0,NW,9.2,-,N/A,,Clear,310,2013-10-22 23:54:00
8:54 PM,57.9,46.9,67,29.85,10.0,North,5.8,-,N/A,,Clear,360,2013-10-23 00:54:00
9:54 PM,55.0,46.9,74,29.86,10.0,Calm,Calm,-,N/A,,Mostly Cloudy,0,2013-10-23 01:54:00
10:54 PM,57.0,43.0,59,29.86,10.0,NNW,8.1,-,N/A,,Mostly Cloudy,340,2013-10-23 02:54:00
11:54 PM,55.9,42.1,60,29.84,10.0,North,5.8,-,0.00,,Overcast,350,2013-10-23 03:54:00